Orbital Elements at Epoch 2459000.5 (2020-May-31.0) TDB
Reference: JPL 14 (heliocentric ecliptic J2000)
Element | Value | Uncertainty (1-sigma) | Units |
e | .1999950260023123 | 4.2705e-08 | |
a | 2.388367739297029 | 1.1644e-08 | au |
q | 1.910706071173236 | 1.0161e-07 | au |
i | 3.091508216564815 | 4.4792e-06 | deg |
node | 137.0711047416684 | 8.8979e-05 | deg |
peri | 259.2319804276602 | 8.9682e-05 | deg |
M | 162.3662198707074 | 1.1381e-05 | deg |
tp | 2458392.444248996417 (2018-Sep-30.94424900) | 4.0961e-05 | TDB |
period | 1348.187267866435 3.69 | 9.8588e-06 2.699e-08 | d yr |
n | .2670252186624752 | 1.9527e-09 | deg/d |
Q | 2.866029407420822 | 1.3972e-08 | au |
|
| | Orbit Determination Parameters
Additional Information
|